Weather History for Novato, CA

Change the Weather History Date:

Monday, June 3, 2013

  Actual Average (KAPC) Record (KAPC)
Temperature  
Mean Temperature 60 °F 62 °F  
Max Temperature 73 °F 77 °F 86 °F (2006)
Min Temperature 48 °F 48 °F 39 °F (1982)
Degree Days  
Heating Degree Days 4    
Month to date heating degree days  
Since 1 June heating degree days  
Since 1 July heating degree days  
Cooling Degree Days 0    
Month to date cooling degree days  
Year to date cooling degree days  
Since 1 June cooling degree days  
Growing Degree Days 10 (Base 50)    
Moisture  
Dew Point 52 °F    
Average Humidity 77    
Maximum Humidity 100    
Minimum Humidity 44    
Precipitation  
Precipitation 0.00 in - 0.22 in (1967)
Month to date precipitation  
Year to date precipitation  
Since 1 July precipitation  
Sea Level Pressure  
Sea Level Pressure 29.80 in    
Wind  
Wind Speed 6 mph (NW)    
Max Wind Speed 15 mph    
Max Gust Speed 20 mph    
Visibility 9 miles    
Events      
T = Trace of Precipitation, MM = Missing Value Source: NWS Daily Summary

Daily Weather History Graph

Daily Weather History Graph

Search for Another Location

Airport:

Trip Planner

Search our weather history database for the weather conditions in past years. The results will help you decide how hot, cold, wet, or windy it might be!

Date:

Astronomy

Jun. 03, 2013 Rise Set
Actual Time 5:48 AM PDT 8:29 PM PDT
Civil Twilight 5:17 AM PDT 9:00 PM PDT
Nautical Twilight 4:38 AM PDT 9:39 PM PDT
Astronomical Twilight 3:54 AM PDT 10:22 PM PDT
Moon 2:44 AM PDT (6/3) 4:08 PM PDT (6/3)
Length of Visible Light 15h 43m
Length of Day
14h 40m
Waning Crescent, 21% of the Moon is Illuminated
Jun 3
Waning Crescent
Jun 8
New
Jun 16
First Quarter
Jun 23
Full
Jun 29
Last Quarter

Hourly Weather History & Observations

Time (PDT) Temp. Dew Point Humidity Pressure Visibility Wind Dir Wind Speed Gust Speed Precip Events Conditions
12:15 AM 53.6 °F 53.6 °F 100% 29.72 in 8.0 mi North 6.9 mph - N/A   Clear
12:35 AM 51.8 °F 51.8 °F 100% 29.72 in 7.0 mi NNW 5.8 mph - N/A   Clear
12:55 AM 51.8 °F 51.8 °F 100% 29.72 in 8.0 mi NNW 4.6 mph - N/A   Clear
1:15 AM 50.0 °F 50.0 °F 100% 29.72 in 8.0 mi NNW 5.8 mph - N/A   Clear
1:35 AM 50.0 °F 50.0 °F 100% 29.73 in 8.0 mi NNW 5.8 mph - N/A   Clear
1:55 AM 51.8 °F 51.8 °F 100% 29.73 in 7.0 mi NNW 6.9 mph - N/A   Clear
2:15 AM 53.6 °F 53.6 °F 100% 29.73 in 7.0 mi NW 5.8 mph - N/A   Clear
2:35 AM 53.6 °F 53.6 °F 100% 29.74 in 7.0 mi NW 6.9 mph - N/A   Clear
2:55 AM 53.6 °F 53.6 °F 100% 29.74 in 7.0 mi NNW 6.9 mph - N/A   Clear
3:15 AM 53.6 °F 53.6 °F 100% 29.74 in 7.0 mi Calm Calm - N/A   Clear
3:35 AM 51.8 °F 51.8 °F 100% 29.75 in 7.0 mi North 6.9 mph - N/A   Clear
3:55 AM 51.8 °F 51.8 °F 100% 29.75 in 7.0 mi Calm Calm - N/A   Clear
4:15 AM 51.8 °F 51.8 °F 100% 29.75 in 10.0 mi ESE 3.5 mph - N/A   Clear
4:35 AM 50.0 °F 50.0 °F 100% 29.75 in 7.0 mi Calm Calm - N/A   Clear
4:55 AM 48.2 °F 48.2 °F 100% 29.75 in 6.0 mi Calm Calm - N/A   Clear
5:15 AM 48.2 °F 48.2 °F 100% 29.75 in 5.0 mi Calm Calm - N/A   Clear
5:35 AM 50.0 °F 50.0 °F 100% 29.76 in 7.0 mi Calm Calm - N/A   Clear
5:55 AM 50.0 °F 50.0 °F 100% 29.76 in 6.0 mi Calm Calm - N/A   Clear
6:15 AM 50.0 °F 50.0 °F 100% 29.77 in 6.0 mi Calm Calm - N/A   Clear
6:35 AM 48.2 °F 48.2 °F 100% 29.77 in 5.0 mi Calm Calm - N/A   Clear
6:55 AM 50.0 °F 50.0 °F 100% 29.78 in 6.0 mi Calm Calm - N/A   Clear
7:15 AM 51.8 °F 51.8 °F 100% 29.78 in 7.0 mi North 3.5 mph - N/A   Clear
7:35 AM 53.6 °F 53.6 °F 100% 29.79 in 9.0 mi North 4.6 mph - N/A   Clear
7:55 AM 55.4 °F 55.4 °F 100% 29.80 in 9.0 mi NNE 5.8 mph - N/A   Clear
8:15 AM 55.4 °F 53.6 °F 94% 29.80 in 8.0 mi NNE 3.5 mph - N/A   Clear
8:35 AM 57.2 °F 53.6 °F 88% 29.80 in 10.0 mi North 4.6 mph - N/A   Clear
8:55 AM 59.0 °F 53.6 °F 82% 29.80 in 10.0 mi North 6.9 mph - N/A   Clear
9:15 AM 62.6 °F 53.6 °F 72% 29.80 in 10.0 mi NW 5.8 mph - N/A   Clear
9:35 AM 64.4 °F 53.6 °F 68% 29.81 in 10.0 mi North 3.5 mph - N/A   Clear
9:55 AM 66.2 °F 53.6 °F 64% 29.81 in 10.0 mi West 4.6 mph - N/A   Clear
10:15 AM 66.2 °F 53.6 °F 64% 29.81 in 10.0 mi NNE 5.8 mph - N/A   Clear
10:35 AM 68.0 °F 53.6 °F 60% 29.81 in 10.0 mi North 10.4 mph - N/A   Clear
10:55 AM 68.0 °F 53.6 °F 60% 29.81 in 10.0 mi North 10.4 mph - N/A   Clear
11:15 AM 69.8 °F 53.6 °F 56% 29.82 in 10.0 mi North 9.2 mph - N/A   Clear
11:35 AM 71.6 °F 53.6 °F 53% 29.82 in 10.0 mi NNW 9.2 mph - N/A   Clear
11:55 AM 71.6 °F 51.8 °F 50% 29.81 in 10.0 mi North 15.0 mph - N/A   Clear
12:15 PM 71.6 °F 51.8 °F 50% 29.82 in 10.0 mi NNW 12.7 mph - N/A   Clear
12:35 PM 71.6 °F 51.8 °F 50% 29.82 in 10.0 mi WNW 6.9 mph - N/A   Clear
12:55 PM 73.4 °F 51.8 °F 47% 29.82 in 10.0 mi NW 11.5 mph 16.1 mph N/A   Clear
1:15 PM 73.4 °F 51.8 °F 47% 29.82 in 10.0 mi West 5.8 mph - N/A   Clear
1:35 PM 71.6 °F 51.8 °F 50% 29.82 in 10.0 mi WSW 9.2 mph - N/A   Clear
1:55 PM 71.6 °F 51.8 °F 50% 29.83 in 10.0 mi WSW 4.6 mph - N/A   Clear
2:15 PM 71.6 °F 51.8 °F 50% 29.83 in 10.0 mi SW 8.1 mph - N/A   Clear
2:35 PM 71.6 °F 51.8 °F 50% 29.83 in 10.0 mi West 8.1 mph - N/A   Clear
2:55 PM 73.4 °F 50.0 °F 44% 29.83 in 10.0 mi Calm Calm - N/A   Clear
3:15 PM 73.4 °F 51.8 °F 47% 29.82 in 10.0 mi West 6.9 mph - N/A   Clear
3:35 PM 73.4 °F 51.8 °F 47% 29.82 in 10.0 mi West 10.4 mph - N/A   Clear
3:55 PM 73.4 °F 51.8 °F 47% 29.82 in 10.0 mi West 12.7 mph - N/A   Clear
4:15 PM 71.6 °F 50.0 °F 46% 29.82 in 10.0 mi WSW 13.8 mph 19.6 mph N/A   Clear
4:35 PM 71.6 °F 50.0 °F 46% 29.82 in 10.0 mi SW 12.7 mph 16.1 mph N/A   Clear
4:55 PM 71.6 °F 50.0 °F 46% 29.82 in 10.0 mi WSW 10.4 mph - N/A   Clear
5:15 PM 71.6 °F 50.0 °F 46% 29.82 in 10.0 mi West 9.2 mph - N/A   Clear
5:35 PM 71.6 °F 50.0 °F 46% 29.81 in 10.0 mi West 11.5 mph - N/A   Clear
5:55 PM 71.6 °F 50.0 °F 46% 29.81 in 10.0 mi West 9.2 mph - N/A   Clear
6:15 PM 69.8 °F 50.0 °F 49% 29.81 in 10.0 mi WNW 6.9 mph - N/A   Clear
6:35 PM 69.8 °F 51.8 °F 53% 29.81 in 10.0 mi NNW 10.4 mph - N/A   Clear
6:55 PM 66.2 °F 51.8 °F 60% 29.82 in 10.0 mi NNW 12.7 mph - N/A   Clear
7:15 PM 64.4 °F 51.8 °F 64% 29.82 in 10.0 mi NNW 15.0 mph 18.4 mph N/A   Clear
7:35 PM 62.6 °F 50.0 °F 63% 29.83 in 10.0 mi NNW 12.7 mph - N/A   Clear
7:55 PM 60.8 °F 50.0 °F 68% 29.84 in 10.0 mi North 8.1 mph - N/A   Clear
8:15 PM 59.0 °F 50.0 °F 72% 29.84 in 10.0 mi North 9.2 mph - N/A   Clear
8:35 PM 57.2 °F 50.0 °F 77% 29.85 in 10.0 mi North 10.4 mph - N/A   Clear
8:55 PM 55.4 °F 51.8 °F 88% 29.86 in 10.0 mi North 9.2 mph - N/A   Clear
9:15 PM 55.4 °F 51.8 °F 88% 29.86 in 10.0 mi North 10.4 mph - N/A   Clear
9:35 PM 53.6 °F 51.8 °F 94% 29.87 in 10.0 mi North 10.4 mph - N/A   Clear
9:55 PM 53.6 °F 51.8 °F 94% 29.87 in 10.0 mi NNW 10.4 mph - N/A   Clear
10:15 PM 53.6 °F 53.6 °F 100% 29.88 in 10.0 mi NNW 12.7 mph - N/A   Clear
10:35 PM 53.6 °F 53.6 °F 100% 29.88 in 10.0 mi NNW 12.7 mph - N/A   Clear
10:55 PM 53.6 °F 53.6 °F 100% 29.88 in 10.0 mi NNW 10.4 mph - N/A   Clear
11:15 PM 53.6 °F 53.6 °F 100% 29.88 in 10.0 mi NNW 10.4 mph - N/A   Clear
11:35 PM 53.6 °F 53.6 °F 100% 29.88 in 10.0 mi NNW 9.2 mph 16.1 mph N/A   Clear
11:55 PM 53.6 °F 53.6 °F 100% 29.88 in 10.0 mi NNW 9.2 mph - N/A   Clear